MICROSAT-TD (43128 NORAD) Tracking and Keplerian Element Data

This shows tracking and keplerian element data for the satellite.

Feedback or suggestion? Click here.




ElementValue
Catalog43128
NameMICROSAT-TD
Epoch Orbit16535
Epoch Day332.73716149
Epoch Year2020
RAAN22.889
Inclination96.5543
Eccentricity0.0008817
Argument of Perigee256.0248
Mean Anonmoly104.0076
Mean Motion16.44115419
Decay Rate0.10569677
L11 43128U 18004T 20332.73716149 .10569677 20755-5 34442-3 0 9994
L22 43128 96.5543 22.8890 0008817 256.0248 104.0076 16.44115419165356

Live tracking and technical data element details for MICROSAT-TD (NORAD 43128). MICROSAT-TD can be tracked NOW for your location showing map with azimuth and elevation plus other details from your city location.

Track the satellite on the map from your city or location and see movement details for azimuth, elevation, latitude, longitude, range, height, and movement on the map or in text.







IsCatalogInMostPopularTable: catalog: 43128, numindb: 524
Update: records affected: 1



GetName: 43128 MICROSAT-TD

Hit Count: updated at: Mon, 27 Sep 2021 01:40:08 GMT